Location: Saratoga Springs
(43.0831°N, 73.7850°W)
Time: 02:39:54
(UTC-04:00)

Vanguard 3 - Pass Details

Date: 27 April 2024
Orbit: 509 x 3232 km, 33.3° (Epoch: 26 May)

Event Time Altitude Azimuth Distance (km) Brightness Sun altitude
Exits shadow 05:08:35 - 257° (WSW) 6,083 11.0 -8.4°
Reaches altitude 10° 05:10:05 10° 256° (WSW) 5,712 10.8 -8.1°
Maximum altitude 05:25:33 54° 186° (S) 2,384 9.3 -5.6°
Drops below altitude 10° 05:34:40 10° 112° (ESE) 3,493 11.1 -4.1°
Sets 05:37:05 0° 107° (ESE) 4,178 11.7 -3.7°
